Torna al catalogo

COSMOS 886 DEB

AttivoLEO
NORAD 19475·DEBRIS·🇷🇺 Russia

Lanciato Dec 27, 1976 da Baikonur Cosmodrome

Loading…

Prossimi Passaggi (prossime 24 ore)

TLE

AggiornatoSource: Space-Track

Epoca: Sep 14, 2026, 19:25 UTC

1 19475U 76126CD  26257.80941336  .00001201  00000-0  59852-3 0  9990
2 19475  65.8516 141.4617 0795123 181.1279 178.7994 13.18551474721430

Traccia COSMOS 886 DEB in tempo reale con AllMySat

Download on the App Store